GW3095 Weather Reports


time (UTC)temp
C
wind
direction
speed
KPH
gust
KPH
rain 1hr
cm
rain 24hr
cm
rain mn
cm
humidity
%
barometer
mb
20260505125005 17 18 0.0 1.6 0.00 0.00 0.00 73 1012.4
20260505124005 17 360 1.6 1.6 0.00 0.00 0.00 73 1012.5
20260505123005 16 52 3.2 1.6 0.00 0.00 0.00 74 1012.6
20260505122010 16 51 0.0 1.6 0.00 0.00 0.00 75 1012.7
20260505121005 15 51 0.0 1.6 0.00 0.00 0.00 76 1012.6
20260505120006 15 51 0.0 1.6 0.00 0.00 0.00 78 1012.4
20260505115005 14 51 1.6 1.6 0.00 0.00 0.00 79 1012.1
20260505114005 13 51 0.0 1.6 0.00 0.00 0.00 81 1012.0
20260505112005 13 51 0.0 1.6 0.00 0.00 0.00 81 1011.6
20260505111006 13 51 0.0 1.6 0.00 0.00 0.00 81 1011.6
20260505102005 13 51 0.0 1.6 0.00 0.00 0.00 80 1011.0
20260505101005 13 51 0.0 1.6 0.00 0.00 0.00 80 1011.0
20260505100005 13 51 0.0 1.6 0.00 0.00 0.00 80 1010.9
20260505095005 13 51 0.0 1.6 0.00 0.00 0.00 80 1011.0
20260505094005 13 51 0.0 1.6 0.00 0.00 0.00 79 1011.0
20260505093005 14 51 0.0 1.6 0.00 0.00 0.00 80 1010.9
20260505092005 14 51 0.0 1.6 0.00 0.00 0.00 80 1010.8
20260505091005 14 51 0.0 1.6 0.00 0.00 0.00 79 1011.0
20260505085005 14 51 0.0 1.6 0.00 0.00 0.00 80 1011.0
20260505084005 14 51 0.0 1.6 0.00 0.00 0.00 79 1010.8
20260505083005 14 51 0.0 1.6 0.00 0.00 0.00 79 1010.6
20260505082005 14 51 0.0 1.6 0.00 0.00 0.00 79 1010.5
20260505081005 14 51 0.0 1.6 0.00 0.00 0.00 80 1010.5
20260505075005 14 51 0.0 1.6 0.00 0.00 0.00 76 1010.7
20260505074005 15 51 0.0 1.6 0.00 0.00 0.00 75 1010.7
20260505073005 15 51 0.0 1.6 0.00 0.00 0.00 74 1010.7
20260505072005 15 51 0.0 1.6 0.00 0.00 0.00 74 1010.9
20260505070005 16 51 0.0 1.6 0.00 0.00 0.00 74 1011.2
20260505065005 16 51 0.0 1.6 0.00 0.00 0.00 74 1011.2
20260505064005 16 51 0.0 1.6 0.00 0.00 0.00 74 1011.3
20260505061005 16 152 0.0 1.6 0.00 0.00 0.00 71 1011.5
20260505060005 16 5 0.0 1.6 0.00 0.00 0.00 73 1011.6
20260505054005 17 5 0.0 1.6 0.00 0.00 0.00 71 1011.6
20260505051005 17 5 0.0 1.6 0.00 0.00 0.00 67 1011.5
20260505040006 19 5 1.6 1.6 0.00 0.00 0.00 61 1011.1
20260505034005 18 32 0.0 1.6 0.00 0.00 0.00 62 1011.1
20260505033005 18 35 1.6 1.6 0.00 0.00 0.00 65 1011.2
20260505032010 18 9 0.0 1.6 0.00 0.00 0.00 68 1011.1
20260505031005 18 10 0.0 1.6 0.00 0.00 0.00 69 1011.2
20260505030006 17 14 0.0 1.6 0.00 0.00 0.00 67 1011.2
20260505025005 17 14 0.0 1.6 0.00 0.00 0.00 69 1011.3
20260505023005 18 14 0.0 1.6 0.00 0.00 0.00 69 1011.1
20260505022005 18 14 0.0 1.6 0.00 0.00 0.00 69 1011.2
20260505021005 18 14 0.0 1.6 0.00 0.00 0.00 68 1011.2
20260505020005 18 14 0.0 1.6 0.00 0.00 0.00 70 1011.2
20260505015005 19 14 0.0 1.6 0.00 0.00 0.00 68 1011.1
20260505014004 20 14 0.0 1.6 0.00 0.00 0.00 67 1010.9
20260505013005 20 21 0.0 1.6 0.00 0.00 0.00 66 1010.9
20260505012005 20 21 0.0 1.6 0.00 0.00 0.00 66 1011.0
20260505011005 20 21 0.0 1.6 0.00 0.00 0.00 64 1010.9
20260505010005 21 30 0.0 1.6 0.00 0.00 0.00 61 1010.8
20260505005005 21 30 0.0 1.6 0.00 0.00 0.00 63 1010.8
20260505004005 21 30 0.0 1.6 0.00 0.00 0.00 60 1010.7
20260505003005 22 30 0.0 1.6 0.00 0.00 0.00 60 1010.7
20260505002005 22 30 0.0 1.6 0.00 0.00 0.00 57 1010.6
20260505001005 22 30 0.0 1.6 0.00 0.00 0.00 55 1010.6
20260505000005 23 30 1.6 1.6 0.00 0.00 0.00 53 1010.6
20260504235005 23 30 1.6 1.6 0.00 0.00 0.00 53 1010.7
20260504234005 23 42 0.0 1.6 0.00 0.00 0.00 52 1010.7
20260504233004 24 67 1.6 1.6 0.00 0.00 0.00 50 1010.7
20260504232004 24 70 1.6 1.6 0.00 0.00 0.00 48 1010.7
20260504231005 24 5 1.6 1.6 0.00 0.00 0.00 47 1010.7
20260504230006 24 5 3.2 1.6 0.00 0.00 0.00 48 1010.6
20260504225004 25 88 3.2 1.6 0.00 0.00 0.00 49 1010.6
20260504224004 25 87 1.6 1.6 0.00 0.00 0.00 49 1010.6
20260504221004 25 350 3.2 1.6 0.00 0.00 0.00 47 1010.7
20260504220005 25 112 3.2 1.6 0.00 0.00 0.00 45 1010.8
20260504215004 25 96 1.6 1.6 0.00 0.00 0.00 44 1010.5
20260504213004 25 87 4.8 1.6 0.00 0.00 0.00 48 1010.5
20260504212005 25 292 1.6 1.6 0.00 0.00 0.00 48 1010.7
20260504211005 26 355 3.2 1.6 0.00 0.00 0.00 47 1010.7
20260504210006 26 26 1.6 1.6 0.00 0.00 0.00 49 1010.8
20260504205004 26 34 0.0 1.6 0.00 0.00 0.00 49 1010.9
20260504204004 26 36 1.6 1.6 0.00 0.00 0.00 46 1010.9
20260504203005 26 40 3.2 1.6 0.00 0.00 0.00 48 1010.9
20260504202004 26 333 8.0 1.6 0.00 0.00 0.00 47 1011.0
20260504201004 26 95 8.0 1.6 0.00 0.00 0.00 47 1011.1
20260504200006 26 350 1.6 1.6 0.00 0.00 0.00 47 1011.2
20260504195005 26 331 4.8 1.6 0.00 0.00 0.00 48 1011.4
20260504193009 26 88 4.8 1.6 0.00 0.00 0.00 46 1011.8
20260504192004 26 338 1.6 1.6 0.00 0.00 0.00 48 1011.9
20260504191005 26 78 1.6 1.6 0.00 0.00 0.00 49 1012.2
20260504190005 26 346 3.2 1.6 0.00 0.00 0.00 51 1012.2
20260504185005 26 346 6.4 1.6 0.00 0.00 0.00 48 1012.4
20260504184004 27 103 1.6 1.6 0.00 0.00 0.00 47 1012.5
20260504183004 26 154 4.8 1.6 0.00 0.00 0.00 52 1012.3
20260504181004 26 5 0.0 1.6 0.00 0.00 0.00 48 1012.7
20260504180006 27 11 1.6 1.6 0.00 0.00 0.00 50 1012.7
20260504175004 26 355 4.8 1.6 0.00 0.00 0.00 54 1012.8
20260504174004 26 40 3.2 1.6 0.00 0.00 0.00 50 1012.9
20260504172005 26 81 0.0 1.6 0.00 0.00 0.00 51 1013.2
20260504171004 26 351 4.8 1.6 0.00 0.00 0.00 54 1013.5
20260504151004 22 101 1.6 1.6 0.00 0.00 0.00 58 1014.6